Flag Weather past 2 weeks in Kapfenberg, Styria, Austria

Now
43 °F

Partly sunny.


Feels Like: 41 °F
Forecast: 35 / 45 °F
Wind: 3 mph from Northeast

Location: Zeltweg

Current Time: Nov 28, 2014 at 1:22:48 PM

Latest Report: Nov 28, 2014 at 12:50 PM


Visibility: 8 mi

Pressure: 29.92 "Hg

Humidity: 81%

Dew point: 37 °F

Location of KapfenbergLocation

Historic Weather in Kapfenberg — Graph

°F

Kapfenberg temperature yesterday

Maximum temperature yesterday: 41 °F (at 1:50 PM)
Minimum temperature yesterday: 34 °F (at 4:50 AM)
Average temperature yesterday: 37 °F

Past Weeks' High & Low Weather Summary

 TemperatureHumidityPressure
High59 °F (Nov 15, 12:50 PM)100% (Nov 13, 11:50 AM)30.42 "Hg (Nov 13, 11:50 AM)
Low27 °F (Nov 28, 5:50 AM)51% (Nov 16, 12:50 PM)29.59 "Hg (Nov 16, 4:50 AM)
Average42 °F87%30.02 "Hg
* Reported Nov 13 11:20 AM — Nov 28 11:50 AM, Kapfenberg, Weather by CustomWeather, © 2014

Note: Actual official high and low records may vary slightly from our data, if they occured in-between our weather recording intervals... More about our weather records

Advertising

Kapfenberg weather history for previous 24 hours

 ConditionsComfort  
Time TempWeatherWind HumidityBarometerVisibility
11:50 AM
Nov 28
41 °FPartly sunny.2 mph81%29.95 "Hg5 mi
11:20 AM37 °FPartly sunny.2 mph93%29.95 "Hg4 mi
10:50 AM36 °FPartly sunny.2 mph93%29.95 "Hg4 mi
10:20 AM36 °FPartly sunny.3 mph93%29.95 "Hg4 mi
9:50 AM34 °FPartly sunny.1 mph93%29.95 "Hg4 mi
9:20 AM32 °FSleet. Fog.1 mph93%29.95 "Hg2 mi
8:50 AM30 °FSleet. Broken clouds.1 mph93%29.95 "Hg1 mi
8:20 AM28 °FSleet. Cloudy.1 mph100%29.95 "Hg1 mi
7:50 AM28 °FSleet. Partly sunny.2 mph100%29.95 "Hg2 mi
7:20 AM28 °FIce fog.1 mph93%29.95 "Hg2 mi
6:50 AM28 °FIce fog.2 mph93%29.95 "Hg3 mi
5:50 AM27 °FPassing clouds.1 mph100%29.92 "Hg4 mi
4:50 AM28 °FFog.3 mph93%29.92 "Hg4 mi
3:50 AM28 °FLight fog.2 mph93%29.92 "Hg3 mi
12:50 AM28 °FPassing clouds.1 mph100%29.92 "Hg5 mi
9:50 PM
Nov 27
36 °FPartly cloudy.5 mph87%29.92 "Hg6 mi
8:50 PM36 °FPartly cloudy.5 mph87%29.92 "Hg6 mi
7:50 PM36 °FOvercast.5 mph87%29.92 "Hg6 mi
6:50 PM37 °FOvercast.6 mph81%29.92 "Hg6 mi
5:50 PM37 °FPassing clouds.5 mph81%29.92 "Hg7 mi
4:50 PM37 °FPassing clouds.7 mph81%29.92 "Hg9 mi
4:20 PM39 °FPassing clouds.3 mph81%29.92 "Hg9 mi
3:50 PM39 °FPartly sunny.2 mph75%29.89 "Hg9 mi
3:20 PM41 °FPartly sunny.3 mph76%29.89 "Hg9 mi
2:50 PM41 °FPartly sunny.2 mph76%29.89 "Hg9 mi
2:20 PM41 °FPartly sunny.2 mph76%29.92 "Hg9 mi
1:50 PM41 °FPartly sunny.2 mph76%29.92 "Hg9 mi
1:20 PM39 °FPartly sunny.2 mph75%29.92 "Hg9 mi
Weather by CustomWeather, © 2014

See weather overviewHow to use our weather pages